Погода в Бебелеве

Россия / Калужская область     54°31′39″N   36°29′34″E
темп.,
°C
ветер,
м/с
пор.,
м/с
влажн.,
%
обл.,
%
осадки,
мм/ч
давл.,
гПа
погр.,
м
6 мая, чт
чт600:00+9ю51384100 0.0 1008309
03:00+8ю51291100 0.0 1008297
06:00+9ю51490100 0.1 1006397
09:00+12ююз81570100 0.1 10061001
12:00+14ю10176492 0.1 10041759
15:00+14ююз101560100 0.1 10041843
18:00+8зюз61191100 1.8 1006887
21:00+6юз4994100 1.8 1009304
7 мая, пт
пт700:00+6юз41195100 0.0 1010359
03:00+4юз3895100 0.0 1011241
06:00+4юз3109143 0.0 1012329
09:00+9зюз47630 0.0 1013761
12:00+13юз58435 0.0 10132202
15:00+14юз693999 0.0 10122494
18:00+13ю5957100 0.1 1012758
21:00+9ююв51268100 0.1 1012411
8 мая, сб
сб800:00+9ююв61564100 0.0 1011566
03:00+8ююв61479100 0.4 1009952
06:00+8ююв71690100 2.1 1006947
09:00+8ююв61394100 3.9 1004830
12:00+10ю5994100 0.4 1003658
15:00+9ююз3892100 2.4 1003423
18:00+10юз611787 0.6 1003983
21:00+5зюз71286100 0.7 1006818
9 мая, вс
вс900:00+4з71396100 0.0 1008764
03:00+5з61187100 0.1 10111083
06:00+4з4889100 0.1 1014847
09:00+6зсз6771100 0.3 10161244
12:00+7сз576397 0.0 10191415
15:00+9ссз585996 0.1 10211567
18:00+11ссз57505 0.0 10211428
21:00+5ссз33720 0.0 102437
10 мая, пн
пн1000:00+4ссз22710 0.0 102621
03:00+3ссз22723 0.0 102820
06:00+4с227349 0.0 102947
09:00+10в22530 0.0 1030513
12:00+14с23415 0.0 10291313
15:00+15св23385 0.0 10281863
18:00+14всв24525 0.0 1027442
21:00+8в33731 0.0 102927